Location: Bad Salzschlirf
(50.3750°N, 9.3000°E)
Time: 13:57:30
(UTC+02:00)

ISS - Visible Passes

Search period start: 01 October 2022 00:00
Search period end: 11 October 2022 00:00
Orbit: 414 x 417 km, 51.6° (Epoch: 01 October)

Date Brightness Start Highest point End Pass type
(mag) Time Alt. Az. Time Alt. Az. Time Alt. Az.
01 Oct -2.4 20:31:16 10° W 20:34:19 32° SSW 20:35:58 20° SSE visible
02 Oct -2.9 19:42:21 10° W 19:45:35 46° SSW 19:48:49 10° SE visible
02 Oct -0.9 21:20:49 10° WSW 21:21:39 11° SW 21:22:08 10° SW visible
03 Oct -1.2 20:30:51 10° W 20:33:03 16° SW 20:35:14 10° S visible
04 Oct -1.7 19:41:34 10° W 19:44:20 24° SW 19:47:07 10° SSE visible
06 Oct -0.7 19:41:33 10° WSW 19:42:49 12° SW 19:44:07 10° SSW visible
